Time,TemperatureF,DewpointF,PressureIn,WindDirection,WindDirectionDegrees,WindSpeedMPH,WindSpeedGustMPH,Humidity,HourlyPrecipIn,Conditions,Clouds,dailyrainin,SoftwareType,DateUTC
2013-06-17 00:01:00,75.9,49.2,30.09,North,0,0.0,0.0,39,0.00,CLR,FEW,0.00,WeatherDisplay:10.37,2013-06-17 04:01:00,
2013-06-17 00:02:00,75.9,49.2,30.09,North,0,0.0,0.0,39,0.00,CLR,FEW,0.00,WeatherDisplay:10.37,2013-06-17 04:02:00,
2013-06-17 00:03:00,75.9,49.9,30.09,North,0,0.0,0.0,40,0.00,CLR,FEW,0.00,WeatherDisplay:10.37,2013-06-17 04:03:00,
2013-06-17 00:07:00,75.9,49.9,30.09,North,0,0.0,0.0,40,0.00,CLR,FEW,0.00,WeatherDisplay:10.37,2013-06-17 04:07:00,
2013-06-17 00:12:00,75.7,50.4,30.09,North,0,0.0,0.0,41,0.00,CLR,FEW,0.00,WeatherDisplay:10.37,2013-06-17 04:12:00,
2013-06-17 00:13:00,75.7,50.4,30.09,North,0,0.0,0.0,41,0.00,CLR,FEW,0.00,WeatherDisplay:10.37,2013-06-17 04:13:00,
2013-06-17 00:18:00,75.7,51.0,30.09,North,0,0.0,0.0,42,0.00,CLR,FEW,0.00,WeatherDisplay:10.37,2013-06-17 04:18:00,
2013-06-17 00:23:00,75.7,51.0,30.09,North,0,0.0,0.0,42,0.00,CLR,FEW,0.00,WeatherDisplay:10.37,2013-06-17 04:23:00,
2013-06-17 00:28:00,75.9,51.8,30.09,North,0,0.0,0.0,43,0.00,CLR,FEW,0.00,WeatherDisplay:10.37,2013-06-17 04:28:00,
2013-06-17 00:33:00,75.9,51.8,30.09,North,0,0.0,0.0,43,0.00,CLR,FEW,0.00,WeatherDisplay:10.37,2013-06-17 04:33:00,
2013-06-17 00:38:00,75.7,52.3,30.09,North,0,0.0,0.0,44,0.00,CLR,FEW,0.00,WeatherDisplay:10.37,2013-06-17 04:38:00,
2013-06-17 00:43:00,75.9,51.8,30.09,North,0,0.0,0.0,43,0.00,CLR,FEW,0.00,WeatherDisplay:10.37,2013-06-17 04:43:00,
2013-06-17 00:48:00,76.3,52.1,30.09,North,0,0.0,0.0,43,0.00,CLR,FEW,0.00,WeatherDisplay:10.37,2013-06-17 04:48:00,
2013-06-17 00:53:00,76.3,52.1,30.09,North,0,0.0,0.0,43,0.00,CLR,FEW,0.00,WeatherDisplay:10.37,2013-06-17 04:53:00,
2013-06-17 00:58:00,76.3,52.8,30.09,North,0,0.0,0.0,44,0.00,CLR,FEW,0.00,WeatherDisplay:10.37,2013-06-17 04:58:00,
2013-06-17 01:03:00,76.1,52.6,30.09,North,0,0.0,0.0,44,0.00,CLR,FEW,0.00,WeatherDisplay:10.37,2013-06-17 05:03:00,
2013-06-17 01:08:00,76.3,52.8,30.09,North,0,0.0,0.0,44,0.00,CLR,FEW,0.00,WeatherDisplay:10.37,2013-06-17 05:08:00,
2013-06-17 01:13:00,76.3,52.8,30.09,North,0,0.0,0.0,44,0.00,CLR,FEW,0.00,WeatherDisplay:10.37,2013-06-17 05:13:00,
2013-06-17 01:18:00,76.3,52.8,30.09,North,0,0.0,0.0,44,0.00,CLR,FEW,0.00,WeatherDisplay:10.37,2013-06-17 05:18:00,
2013-06-17 01:23:00,76.1,52.6,30.09,North,0,0.0,0.0,44,0.00,CLR,FEW,0.00,WeatherDisplay:10.37,2013-06-17 05:23:00,
2013-06-17 01:28:00,76.5,52.3,30.09,North,0,0.0,0.0,43,0.00,CLR,FEW,0.00,WeatherDisplay:10.37,2013-06-17 05:28:00,
2013-06-17 01:33:00,76.6,52.5,30.09,North,0,0.0,0.0,43,0.00,CLR,FEW,0.00,WeatherDisplay:10.37,2013-06-17 05:33:00,
2013-06-17 01:38:00,76.6,52.5,30.09,North,0,0.0,0.0,43,0.00,CLR,FEW,0.00,WeatherDisplay:10.37,2013-06-17 05:38:00,
2013-06-17 01:43:00,76.5,52.9,30.09,North,0,0.0,0.0,44,0.00,CLR,FEW,0.00,WeatherDisplay:10.37,2013-06-17 05:43:00,
2013-06-17 01:48:00,76.5,52.9,30.06,North,0,0.0,0.0,44,0.00,CLR,FEW,0.00,WeatherDisplay:10.37,2013-06-17 05:48:00,
2013-06-17 01:53:00,76.6,52.5,30.06,North,0,0.0,0.0,43,0.00,CLR,FEW,0.00,WeatherDisplay:10.37,2013-06-17 05:53:00,
2013-06-17 01:58:00,76.6,53.1,30.06,North,0,0.0,0.0,44,0.00,CLR,FEW,0.00,WeatherDisplay:10.37,2013-06-17 05:58:00,
2013-06-17 02:03:00,76.6,53.1,30.06,North,0,0.0,0.0,44,0.00,CLR,FEW,0.00,WeatherDisplay:10.37,2013-06-17 06:03:00,
2013-06-17 02:08:00,76.6,53.1,30.06,North,0,0.0,0.0,44,0.00,CLR,FEW,0.00,WeatherDisplay:10.37,2013-06-17 06:08:00,
2013-06-17 02:13:00,76.6,52.5,30.06,North,0,0.0,0.0,43,0.00,CLR,FEW,0.00,WeatherDisplay:10.37,2013-06-17 06:13:00,
2013-06-17 02:18:00,76.8,52.6,30.06,North,0,0.0,0.0,43,0.00,CLR,FEW,0.00,WeatherDisplay:10.37,2013-06-17 06:18:00,
2013-06-17 02:23:00,76.8,52.6,30.06,North,0,0.0,0.0,43,0.00,CLR,FEW,0.00,WeatherDisplay:10.37,2013-06-17 06:23:00,
2013-06-17 02:28:00,76.8,53.3,30.06,North,0,0.0,0.0,44,0.00,CLR,FEW,0.00,WeatherDisplay:10.37,2013-06-17 06:28:00,
2013-06-17 02:33:00,77.0,52.8,30.06,North,0,0.0,0.0,43,0.00,CLR,FEW,0.00,WeatherDisplay:10.37,2013-06-17 06:33:00,
2013-06-17 02:38:00,77.0,53.4,30.06,North,0,0.0,0.0,44,0.00,CLR,FEW,0.00,WeatherDisplay:10.37,2013-06-17 06:38:00,
2013-06-17 02:43:00,77.0,53.4,30.06,North,0,0.0,0.0,44,0.00,CLR,FEW,0.00,WeatherDisplay:10.37,2013-06-17 06:43:00,
2013-06-17 02:48:00,76.8,52.6,30.06,North,0,0.0,0.0,43,0.00,CLR,FEW,0.00,WeatherDisplay:10.37,2013-06-17 06:48:00,
2013-06-17 02:53:00,76.8,52.6,30.06,North,0,0.0,0.0,43,0.00,CLR,FEW,0.00,WeatherDisplay:10.37,2013-06-17 06:53:00,
2013-06-17 02:58:00,76.8,52.6,30.06,North,0,0.0,0.0,43,0.00,CLR,FEW,0.00,WeatherDisplay:10.37,2013-06-17 06:58:00,
2013-06-17 03:03:00,76.8,53.3,30.06,North,0,0.0,0.0,44,0.00,CLR,FEW,0.00,WeatherDisplay:10.37,2013-06-17 07:03:00,
2013-06-17 03:08:00,76.8,53.9,30.06,North,0,0.0,0.0,45,0.00,CLR,FEW,0.00,WeatherDisplay:10.37,2013-06-17 07:08:00,
2013-06-17 03:13:00,77.0,54.0,30.06,North,0,0.0,0.0,45,0.00,CLR,FEW,0.00,WeatherDisplay:10.37,2013-06-17 07:13:00,
2013-06-17 03:18:00,77.0,54.0,30.06,North,0,0.0,0.0,45,0.00,CLR,FEW,0.00,WeatherDisplay:10.37,2013-06-17 07:18:00,
2013-06-17 03:23:00,77.0,54.0,30.06,North,0,0.0,0.0,45,0.00,CLR,FEW,0.00,WeatherDisplay:10.37,2013-06-17 07:23:00,
2013-06-17 03:28:00,76.8,54.5,30.06,North,0,0.0,0.0,46,0.00,CLR,FEW,0.00,WeatherDisplay:10.37,2013-06-17 07:28:00,
2013-06-17 03:33:00,76.6,54.9,30.06,North,0,0.0,0.0,47,0.00,CLR,FEW,0.00,WeatherDisplay:10.37,2013-06-17 07:33:00,
2013-06-17 03:38:00,76.5,55.3,30.06,North,0,0.0,0.0,48,0.00,CLR,FEW,0.00,WeatherDisplay:10.37,2013-06-17 07:38:00,
2013-06-17 03:43:00,76.3,55.1,30.06,North,0,0.0,0.0,48,0.00,CLR,FEW,0.00,WeatherDisplay:10.37,2013-06-17 07:43:00,
2013-06-17 03:48:00,76.1,55.5,30.06,North,0,0.0,0.0,49,0.00,CLR,FEW,0.00,WeatherDisplay:10.37,2013-06-17 07:48:00,
2013-06-17 03:53:00,76.1,56.1,30.06,North,0,0.0,0.0,50,0.00,CLR,FEW,0.00,WeatherDisplay:10.37,2013-06-17 07:53:00,
2013-06-17 03:58:00,76.1,56.7,30.06,North,0,0.0,0.0,51,0.00,CLR,FEW,0.00,WeatherDisplay:10.37,2013-06-17 07:58:00,
2013-06-17 04:03:00,76.1,56.1,30.06,North,0,0.0,0.0,50,0.00,CLR,FEW,0.00,WeatherDisplay:10.37,2013-06-17 08:03:00,
2013-06-17 04:08:00,76.3,56.3,30.06,North,0,0.0,0.0,50,0.00,CLR,FEW,0.00,WeatherDisplay:10.37,2013-06-17 08:08:00,
2013-06-17 04:13:00,76.3,55.7,30.06,North,0,0.0,0.0,49,0.00,CLR,FEW,0.00,WeatherDisplay:10.37,2013-06-17 08:13:00,
2013-06-17 04:18:00,76.3,55.7,30.06,North,0,0.0,0.0,49,0.00,CLR,FEW,0.00,WeatherDisplay:10.37,2013-06-17 08:18:00,
2013-06-17 04:23:00,76.3,55.1,30.06,North,0,0.0,0.0,48,0.00,CLR,FEW,0.00,WeatherDisplay:10.37,2013-06-17 08:23:00,
2013-06-17 04:28:00,76.5,55.9,30.06,North,0,0.0,0.0,49,0.00,CLR,FEW,0.00,WeatherDisplay:10.37,2013-06-17 08:28:00,
2013-06-17 04:33:00,76.5,55.9,30.06,North,0,0.0,0.0,49,0.00,CLR,FEW,0.00,WeatherDisplay:10.37,2013-06-17 08:33:00,
2013-06-17 04:38:00,76.3,56.3,30.06,North,0,0.0,0.0,50,0.00,CLR,FEW,0.00,WeatherDisplay:10.37,2013-06-17 08:38:00,
2013-06-17 04:43:00,75.9,55.9,30.06,North,0,0.0,0.0,50,0.00,CLR,FEW,0.00,WeatherDisplay:10.37,2013-06-17 08:43:00,
2013-06-17 04:48:00,75.7,55.2,30.06,North,0,0.0,0.0,49,0.00,CLR,FEW,0.00,WeatherDisplay:10.37,2013-06-17 08:48:00,
2013-06-17 04:53:00,75.7,55.2,30.06,North,0,0.0,0.0,49,0.00,CLR,FEW,0.00,WeatherDisplay:10.37,2013-06-17 08:53:00,
2013-06-17 04:58:00,75.6,54.5,30.06,North,0,0.0,0.0,48,0.00,CLR,FEW,0.00,WeatherDisplay:10.37,2013-06-17 08:58:00,
2013-06-17 05:03:00,75.4,54.3,30.06,North,0,0.0,0.0,48,0.00,CLR,FEW,0.00,WeatherDisplay:10.37,2013-06-17 09:03:00,
2013-06-17 05:08:00,75.4,54.3,30.06,North,0,0.0,0.0,48,0.00,CLR,FEW,0.00,WeatherDisplay:10.37,2013-06-17 09:08:00,
2013-06-17 05:13:00,75.2,54.2,30.06,North,0,0.0,0.0,48,0.00,CLR,FEW,0.00,WeatherDisplay:10.37,2013-06-17 09:13:00,
2013-06-17 05:18:00,75.0,54.6,30.06,North,0,0.0,0.0,49,0.00,CLR,FEW,0.00,WeatherDisplay:10.37,2013-06-17 09:18:00,
2013-06-17 05:23:00,75.0,55.1,30.06,North,0,0.0,0.0,50,0.00,CLR,FEW,0.00,WeatherDisplay:10.37,2013-06-17 09:23:00,
2013-06-17 05:28:00,74.8,55.5,30.06,North,0,0.0,0.0,51,0.00,CLR,FEW,0.00,WeatherDisplay:10.37,2013-06-17 09:28:00,
2013-06-17 05:33:00,74.5,55.2,30.06,North,0,0.0,0.0,51,0.00,CLR,FEW,0.00,WeatherDisplay:10.37,2013-06-17 09:33:00,
2013-06-17 05:38:00,74.3,55.5,30.06,North,0,0.0,0.0,52,0.00,CLR,FEW,0.00,WeatherDisplay:10.37,2013-06-17 09:38:00,
2013-06-17 05:43:00,74.1,55.9,30.06,North,0,0.0,0.0,53,0.00,CLR,FEW,0.00,WeatherDisplay:10.37,2013-06-17 09:43:00,
2013-06-17 05:48:00,74.3,56.6,30.06,North,0,0.0,0.0,54,0.00,CLR,FEW,0.00,WeatherDisplay:10.37,2013-06-17 09:48:00,
2013-06-17 05:53:00,74.1,56.4,30.06,North,0,0.0,0.0,54,0.00,CLR,FEW,0.00,WeatherDisplay:10.37,2013-06-17 09:53:00,
2013-06-17 05:58:00,73.9,56.2,30.06,North,0,0.0,0.0,54,0.00,CLR,FEW,0.00,WeatherDisplay:10.37,2013-06-17 09:58:00,
2013-06-17 06:03:00,73.8,56.1,30.06,North,0,0.0,0.0,54,0.00,CLR,FEW,0.00,WeatherDisplay:10.37,2013-06-17 10:03:00,
2013-06-17 06:08:00,73.8,56.6,30.06,North,0,0.0,0.0,55,0.00,CLR,FEW,0.00,WeatherDisplay:10.37,2013-06-17 10:08:00,
2013-06-17 06:13:00,73.9,57.3,30.06,North,0,0.0,0.0,56,0.00,CLR,FEW,0.00,WeatherDisplay:10.37,2013-06-17 10:13:00,
2013-06-17 06:18:00,73.9,56.8,30.06,North,0,0.0,0.0,55,0.00,CLR,FEW,0.00,WeatherDisplay:10.37,2013-06-17 10:18:00,
2013-06-17 06:23:00,73.9,56.8,30.06,North,0,0.0,0.0,55,0.00,CLR,FEW,0.00,WeatherDisplay:10.37,2013-06-17 10:23:00,
2013-06-17 06:28:00,73.9,56.8,30.06,North,0,0.0,0.0,55,0.00,CLR,FEW,0.00,WeatherDisplay:10.37,2013-06-17 10:28:00,
2013-06-17 06:33:00,73.9,56.8,30.06,North,0,0.0,0.0,55,0.00,CLR,FEW,0.00,WeatherDisplay:10.37,2013-06-17 10:33:00,
2013-06-17 06:38:00,73.9,57.3,30.06,North,0,0.0,0.0,56,0.00,CLR,FEW,0.00,WeatherDisplay:10.37,2013-06-17 10:38:00,
2013-06-17 06:43:00,73.9,57.3,30.06,North,0,0.0,0.0,56,0.00,CLR,FEW,0.00,WeatherDisplay:10.37,2013-06-17 10:43:00,
2013-06-17 06:48:00,73.8,56.6,30.06,North,0,0.0,0.0,55,0.00,CLR,FEW,0.00,WeatherDisplay:10.37,2013-06-17 10:48:00,
2013-06-17 06:53:00,73.8,57.1,30.06,North,0,0.0,0.0,56,0.00,CLR,FEW,0.00,WeatherDisplay:10.37,2013-06-17 10:53:00,
2013-06-17 06:58:00,73.8,57.6,30.06,North,0,0.0,0.0,57,0.00,CLR,FEW,0.00,WeatherDisplay:10.37,2013-06-17 10:58:00,
2013-06-17 07:03:00,74.1,57.9,30.06,North,0,0.0,0.0,57,0.00,CLR,FEW,0.00,WeatherDisplay:10.37,2013-06-17 11:03:00,
2013-06-17 07:08:00,74.1,57.9,30.06,North,0,0.0,0.0,57,0.00,CLR,FEW,0.00,WeatherDisplay:10.37,2013-06-17 11:08:00,
2013-06-17 07:13:00,74.1,57.9,30.06,North,0,0.0,0.0,57,0.00,CLR,FEW,0.00,WeatherDisplay:10.37,2013-06-17 11:13:00,
2013-06-17 07:18:00,74.3,58.1,30.06,North,0,0.0,0.0,57,0.00,CLR,FEW,0.00,WeatherDisplay:10.37,2013-06-17 11:18:00,
2013-06-17 07:23:00,74.7,58.4,30.06,North,0,0.0,0.0,57,0.00,CLR,FEW,0.00,WeatherDisplay:10.37,2013-06-17 11:23:00,
2013-06-17 07:28:00,75.2,58.4,30.06,North,0,0.0,0.0,56,0.00,CLR,FEW,0.00,WeatherDisplay:10.37,2013-06-17 11:28:00,
2013-06-17 07:33:00,75.6,58.3,30.06,North,0,0.0,0.0,55,0.00,CLR,FEW,0.00,WeatherDisplay:10.37,2013-06-17 11:33:00,
2013-06-17 07:38:00,75.9,57.0,30.06,North,0,0.0,0.0,52,0.00,CLR,FEW,0.00,WeatherDisplay:10.37,2013-06-17 11:38:00,
2013-06-17 07:43:00,76.1,56.7,30.06,North,0,0.0,0.0,51,0.00,CLR,FEW,0.00,WeatherDisplay:10.37,2013-06-17 11:43:00,
2013-06-17 07:48:00,76.5,57.0,30.06,North,0,0.0,0.0,51,0.00,CLR,FEW,0.00,WeatherDisplay:10.37,2013-06-17 11:48:00,
2013-06-17 07:53:00,76.8,56.8,30.06,North,0,0.0,0.0,50,0.00,CLR,FEW,0.00,WeatherDisplay:10.37,2013-06-17 11:53:00,
2013-06-17 07:58:00,77.0,55.8,30.06,North,0,0.0,0.0,48,0.00,CLR,FEW,0.00,WeatherDisplay:10.37,2013-06-17 11:58:00,
2013-06-17 08:03:00,77.2,56.0,30.06,North,0,0.0,0.0,48,0.00,CLR,FEW,0.00,WeatherDisplay:10.37,2013-06-17 12:03:00,
2013-06-17 08:08:00,77.2,55.4,30.06,North,0,0.0,0.0,47,0.00,CLR,FEW,0.00,WeatherDisplay:10.37,2013-06-17 12:08:00,
2013-06-17 08:13:00,77.4,56.1,30.06,North,0,0.0,0.0,48,0.00,CLR,FEW,0.00,WeatherDisplay:10.37,2013-06-17 12:13:00,
2013-06-17 08:18:00,77.7,57.0,30.06,North,0,0.0,0.0,49,0.00,CLR,FEW,0.00,WeatherDisplay:10.37,2013-06-17 12:18:00,
2013-06-17 08:23:00,78.1,56.8,30.06,North,0,0.0,0.0,48,0.00,CLR,FEW,0.00,WeatherDisplay:10.37,2013-06-17 12:23:00,
2013-06-17 08:28:00,78.6,56.1,30.06,North,0,0.0,0.0,46,0.00,CLR,FEW,0.00,WeatherDisplay:10.37,2013-06-17 12:28:00,
2013-06-17 08:33:00,79.2,56.0,30.06,North,0,0.0,0.0,45,0.00,CLR,FEW,0.00,WeatherDisplay:10.37,2013-06-17 12:33:00,
2013-06-17 08:38:00,79.7,55.2,30.06,North,0,0.0,0.0,43,0.00,CLR,FEW,0.00,WeatherDisplay:10.37,2013-06-17 12:38:00,
2013-06-17 08:43:00,80.2,55.1,30.06,North,0,0.0,0.0,42,0.00,CLR,FEW,0.00,WeatherDisplay:10.37,2013-06-17 12:43:00,
2013-06-17 08:48:00,80.4,54.6,30.06,North,0,0.0,0.0,41,0.00,CLR,FEW,0.00,WeatherDisplay:10.37,2013-06-17 12:48:00,
2013-06-17 08:53:00,80.6,54.7,30.06,North,0,0.0,0.0,41,0.00,CLR,FEW,0.00,WeatherDisplay:10.37,2013-06-17 12:53:00,
2013-06-17 08:58:00,81.1,55.2,30.06,North,0,0.0,0.0,41,0.00,CLR,FEW,0.00,WeatherDisplay:10.37,2013-06-17 12:58:00,
2013-06-17 09:03:00,81.7,55.0,30.06,North,0,0.0,0.0,40,0.00,CLR,FEW,0.00,WeatherDisplay:10.37,2013-06-17 13:03:00,
2013-06-17 09:08:00,81.9,53.8,30.06,North,0,0.0,0.0,38,0.00,CLR,FEW,0.00,WeatherDisplay:10.37,2013-06-17 13:08:00,
2013-06-17 09:13:00,81.7,54.3,30.06,North,0,0.0,0.0,39,0.00,CLR,FEW,0.00,WeatherDisplay:10.37,2013-06-17 13:13:00,
2013-06-17 09:18:00,81.9,54.5,30.06,North,0,0.0,0.0,39,0.00,CLR,FEW,0.00,WeatherDisplay:10.37,2013-06-17 13:18:00,
2013-06-17 09:23:00,82.2,54.8,30.06,North,0,0.0,0.0,39,0.00,CLR,FEW,0.00,WeatherDisplay:10.37,2013-06-17 13:23:00,
2013-06-17 09:28:00,82.4,54.2,30.06,North,0,0.0,0.0,38,0.00,CLR,FEW,0.00,WeatherDisplay:10.37,2013-06-17 13:28:00,
2013-06-17 09:33:00,82.0,53.2,30.06,North,0,0.0,0.0,37,0.00,CLR,FEW,0.00,WeatherDisplay:10.37,2013-06-17 13:33:00,
2013-06-17 09:38:00,81.5,54.2,30.06,North,0,0.0,0.0,39,0.00,CLR,FEW,0.00,WeatherDisplay:10.37,2013-06-17 13:38:00,
2013-06-17 09:43:00,81.5,54.8,30.06,North,0,0.0,0.0,40,0.00,CLR,FEW,0.00,WeatherDisplay:10.37,2013-06-17 13:43:00,
2013-06-17 09:48:00,82.0,54.6,30.06,North,0,0.0,0.0,39,0.00,CLR,FEW,0.00,WeatherDisplay:10.37,2013-06-17 13:48:00,
2013-06-17 09:53:00,82.4,53.5,30.06,North,0,0.0,0.0,37,0.00,CLR,FEW,0.00,WeatherDisplay:10.37,2013-06-17 13:53:00,
2013-06-17 09:58:00,82.4,53.5,30.06,North,0,0.0,0.0,37,0.00,CLR,FEW,0.00,WeatherDisplay:10.37,2013-06-17 13:58:00,
2013-06-17 10:03:00,82.2,52.6,30.06,North,0,0.0,0.0,36,0.00,CLR,FEW,0.00,WeatherDisplay:10.37,2013-06-17 14:03:00,
2013-06-17 10:08:00,82.2,52.6,30.06,North,0,0.0,0.0,36,0.00,CLR,FEW,0.00,WeatherDisplay:10.37,2013-06-17 14:08:00,
2013-06-17 10:13:00,82.6,50.6,30.06,North,0,0.0,0.0,33,0.00,CLR,FEW,0.00,WeatherDisplay:10.37,2013-06-17 14:13:00,
2013-06-17 10:18:00,82.9,51.7,30.06,North,0,0.0,0.0,34,0.00,CLR,FEW,0.00,WeatherDisplay:10.37,2013-06-17 14:18:00,
2013-06-17 10:23:00,83.5,52.2,30.06,North,0,0.0,0.0,34,0.00,CLR,FEW,0.00,WeatherDisplay:10.37,2013-06-17 14:23:00,
2013-06-17 10:28:00,84.0,51.0,30.06,North,0,0.0,0.0,32,0.00,CLR,FEW,0.00,WeatherDisplay:10.37,2013-06-17 14:28:00,
2013-06-17 10:33:00,84.4,51.3,30.06,North,0,0.0,0.0,32,0.00,CLR,FEW,0.00,WeatherDisplay:10.37,2013-06-17 14:33:00,
2013-06-17 10:38:00,84.2,50.3,30.06,North,0,0.0,0.0,31,0.00,CLR,FEW,0.00,WeatherDisplay:10.37,2013-06-17 14:38:00,
2013-06-17 10:43:00,84.0,51.0,30.06,North,0,0.0,0.0,32,0.00,CLR,FEW,0.00,WeatherDisplay:10.37,2013-06-17 14:43:00,
2013-06-17 10:48:00,84.4,51.3,30.06,North,0,0.0,0.0,32,0.00,CLR,FEW,0.00,WeatherDisplay:10.37,2013-06-17 14:48:00,
2013-06-17 10:53:00,84.6,50.6,30.06,North,0,0.0,0.0,31,0.00,CLR,FEW,0.00,WeatherDisplay:10.37,2013-06-17 14:53:00,
2013-06-17 10:58:00,84.6,50.6,30.06,North,0,0.0,0.0,31,0.00,CLR,FEW,0.00,WeatherDisplay:10.37,2013-06-17 14:58:00,
2013-06-17 11:03:00,84.6,50.6,30.06,North,0,0.0,0.0,31,0.00,CLR,FEW,0.00,WeatherDisplay:10.37,2013-06-17 15:03:00,
2013-06-17 11:08:00,84.7,50.8,30.06,North,0,0.0,0.0,31,0.00,CLR,FEW,0.00,WeatherDisplay:10.37,2013-06-17 15:08:00,
2013-06-17 11:13:00,85.3,50.3,30.06,North,0,0.0,0.0,30,0.00,CLR,FEW,0.00,WeatherDisplay:10.37,2013-06-17 15:13:00,
2013-06-17 11:18:00,86.2,51.1,30.06,North,0,0.0,0.0,30,0.00,CLR,FEW,0.00,WeatherDisplay:10.37,2013-06-17 15:18:00,
2013-06-17 11:23:00,86.0,50.0,30.06,North,0,0.0,0.0,29,0.00,CLR,FEW,0.00,WeatherDisplay:10.37,2013-06-17 15:23:00,
2013-06-17 11:28:00,86.0,51.0,30.06,North,0,0.0,0.0,30,0.00,CLR,FEW,0.00,WeatherDisplay:10.37,2013-06-17 15:28:00,
2013-06-17 11:33:00,85.3,51.2,30.06,North,0,0.0,0.0,31,0.00,CLR,FEW,0.00,WeatherDisplay:10.37,2013-06-17 15:33:00,
2013-06-17 11:38:00,85.3,52.1,30.06,North,0,0.0,0.0,32,0.00,CLR,FEW,0.00,WeatherDisplay:10.37,2013-06-17 15:38:00,
2013-06-17 11:43:00,85.6,51.5,30.06,North,0,0.0,0.0,31,0.00,CLR,FEW,0.00,WeatherDisplay:10.37,2013-06-17 15:43:00,
2013-06-17 11:48:00,85.8,51.7,30.06,North,0,0.0,0.0,31,0.00,CLR,FEW,0.00,WeatherDisplay:10.37,2013-06-17 15:48:00,
2013-06-17 11:53:00,86.4,51.3,30.06,North,0,0.0,0.0,30,0.00,CLR,FEW,0.00,WeatherDisplay:10.37,2013-06-17 15:53:00,
2013-06-17 11:58:00,86.2,52.0,30.06,North,0,0.0,0.0,31,0.00,CLR,FEW,0.00,WeatherDisplay:10.37,2013-06-17 15:58:00,
2013-06-17 12:03:00,86.2,51.1,30.03,North,0,0.0,0.0,30,0.00,CLR,FEW,0.00,WeatherDisplay:10.37,2013-06-17 16:03:00,
2013-06-17 12:08:00,85.8,51.7,30.03,North,0,0.0,0.0,31,0.00,CLR,FEW,0.00,WeatherDisplay:10.37,2013-06-17 16:08:00,
2013-06-17 12:13:00,85.8,51.7,30.03,North,0,0.0,0.0,31,0.00,CLR,FEW,0.00,WeatherDisplay:10.37,2013-06-17 16:13:00,
2013-06-17 12:18:00,86.0,52.7,30.03,North,0,0.0,0.0,32,0.00,CLR,FEW,0.00,WeatherDisplay:10.37,2013-06-17 16:18:00,
2013-06-17 12:23:00,86.5,52.3,30.03,North,0,0.0,0.0,31,0.00,CLR,FEW,0.00,WeatherDisplay:10.37,2013-06-17 16:23:00,
2013-06-17 12:28:00,86.7,53.3,30.03,North,0,0.0,0.0,32,0.00,CLR,FEW,0.00,WeatherDisplay:10.37,2013-06-17 16:28:00,
2013-06-17 12:33:00,86.7,52.5,30.03,North,0,0.0,0.0,31,0.00,CLR,FEW,0.00,WeatherDisplay:10.37,2013-06-17 16:33:00,
2013-06-17 12:38:00,86.5,52.3,30.03,North,0,0.0,0.0,31,0.00,CLR,FEW,0.00,WeatherDisplay:10.37,2013-06-17 16:38:00,
2013-06-17 12:43:00,85.8,52.5,30.03,North,0,0.0,0.0,32,0.00,CLR,FEW,0.00,WeatherDisplay:10.37,2013-06-17 16:43:00,
2013-06-17 12:48:00,86.0,54.4,30.03,North,0,0.0,0.0,34,0.00,CLR,FEW,0.00,WeatherDisplay:10.37,2013-06-17 16:48:00,
2013-06-17 12:53:00,86.0,54.4,30.03,North,0,0.0,0.0,34,0.00,CLR,FEW,0.00,WeatherDisplay:10.37,2013-06-17 16:53:00,
2013-06-17 12:58:00,85.8,54.2,30.03,North,0,0.0,0.0,34,0.00,CLR,FEW,0.00,WeatherDisplay:10.37,2013-06-17 16:58:00,
2013-06-17 13:03:00,85.3,54.5,30.03,North,0,0.0,0.0,35,0.00,CLR,FEW,0.00,WeatherDisplay:10.37,2013-06-17 17:03:00,
2013-06-17 13:08:00,84.6,54.7,30.03,North,0,0.0,0.0,36,0.00,CLR,FEW,0.00,WeatherDisplay:10.37,2013-06-17 17:08:00,
2013-06-17 13:13:00,84.0,56.4,30.03,North,0,0.0,0.0,39,0.00,CLR,FEW,0.00,WeatherDisplay:10.37,2013-06-17 17:13:00,
2013-06-17 13:18:00,83.8,57.6,30.03,North,0,0.0,0.0,41,0.00,CLR,FEW,0.00,WeatherDisplay:10.37,2013-06-17 17:18:00,
2013-06-17 13:23:00,83.7,58.1,30.03,North,0,0.0,0.0,42,0.00,CLR,FEW,0.00,WeatherDisplay:10.37,2013-06-17 17:23:00,
2013-06-17 13:28:00,83.7,58.1,30.03,North,0,0.0,0.0,42,0.00,CLR,FEW,0.00,WeatherDisplay:10.37,2013-06-17 17:28:00,
2013-06-17 13:33:00,83.5,58.0,30.03,North,0,0.0,0.0,42,0.00,CLR,FEW,0.00,WeatherDisplay:10.37,2013-06-17 17:33:00,
2013-06-17 13:38:00,83.1,58.3,30.03,North,0,0.0,0.0,43,0.00,CLR,FEW,0.00,WeatherDisplay:10.37,2013-06-17 17:38:00,
2013-06-17 13:43:00,82.8,58.6,30.03,North,0,0.0,0.0,44,0.00,CLR,FEW,0.00,WeatherDisplay:10.37,2013-06-17 17:43:00,
2013-06-17 13:48:00,83.1,62.0,30.03,North,0,0.0,0.0,49,0.00,CLR,FEW,0.00,WeatherDisplay:10.37,2013-06-17 17:48:00,
2013-06-17 13:53:00,82.8,59.3,30.03,North,0,0.0,0.0,45,0.00,CLR,FEW,0.00,WeatherDisplay:10.37,2013-06-17 17:53:00,
2013-06-17 13:58:00,82.2,60.0,30.03,North,0,0.0,0.0,47,0.00,CLR,FEW,0.00,WeatherDisplay:10.37,2013-06-17 17:58:00,
2013-06-17 14:03:00,82.2,60.6,30.03,North,0,0.0,0.0,48,0.00,CLR,FEW,0.00,WeatherDisplay:10.37,2013-06-17 18:03:00,
2013-06-17 14:08:00,82.6,60.3,30.03,North,0,0.0,0.0,47,0.00,CLR,FEW,0.00,WeatherDisplay:10.37,2013-06-17 18:08:00,
2013-06-17 14:13:00,82.8,59.9,30.03,North,0,0.0,0.0,46,0.00,CLR,FEW,0.00,WeatherDisplay:10.37,2013-06-17 18:13:00,
2013-06-17 14:18:00,82.9,60.6,30.03,North,0,0.0,0.0,47,0.00,CLR,FEW,0.00,WeatherDisplay:10.37,2013-06-17 18:18:00,
2013-06-17 14:23:00,83.5,60.5,30.03,North,0,0.0,0.0,46,0.00,CLR,FEW,0.00,WeatherDisplay:10.37,2013-06-17 18:23:00,
2013-06-17 14:28:00,83.7,58.8,30.03,North,0,0.0,0.0,43,0.00,CLR,FEW,0.00,WeatherDisplay:10.37,2013-06-17 18:28:00,
2013-06-17 14:33:00,83.5,59.3,30.03,North,0,0.0,0.0,44,0.00,CLR,FEW,0.00,WeatherDisplay:10.37,2013-06-17 18:33:00,
2013-06-17 14:38:00,83.1,59.6,30.03,North,0,0.0,0.0,45,0.00,CLR,FEW,0.00,WeatherDisplay:10.37,2013-06-17 18:38:00,
2013-06-17 14:43:00,82.4,58.3,30.03,North,0,0.0,0.0,44,0.00,CLR,FEW,0.00,WeatherDisplay:10.37,2013-06-17 18:43:00,
2013-06-17 14:48:00,82.2,59.4,30.03,North,0,0.0,0.0,46,0.00,CLR,FEW,0.00,WeatherDisplay:10.37,2013-06-17 18:48:00,
2013-06-17 14:53:00,81.9,59.1,30.03,North,0,0.0,0.0,46,0.00,CLR,FEW,0.00,WeatherDisplay:10.37,2013-06-17 18:53:00,
2013-06-17 14:58:00,82.2,60.6,30.03,North,0,0.0,0.0,48,0.00,CLR,FEW,0.00,WeatherDisplay:10.37,2013-06-17 18:58:00,
2013-06-17 15:03:00,83.3,59.7,30.03,North,0,0.0,0.0,45,0.00,CLR,FEW,0.00,WeatherDisplay:10.37,2013-06-17 19:03:00,
2013-06-17 15:08:00,83.3,59.1,30.03,North,0,0.0,0.0,44,0.00,CLR,FEW,0.00,WeatherDisplay:10.37,2013-06-17 19:08:00,
2013-06-17 15:13:00,83.5,58.6,30.03,North,0,0.0,0.0,43,0.00,CLR,FEW,0.00,WeatherDisplay:10.37,2013-06-17 19:13:00,
2013-06-17 15:18:00,83.7,58.1,30.00,North,0,0.0,0.0,42,0.00,CLR,FEW,0.00,WeatherDisplay:10.37,2013-06-17 19:18:00,
2013-06-17 15:23:00,83.1,57.6,30.00,North,0,0.0,0.0,42,0.00,CLR,FEW,0.00,WeatherDisplay:10.37,2013-06-17 19:23:00,
2013-06-17 15:28:00,82.4,58.3,30.00,North,0,0.0,0.0,44,0.00,CLR,FEW,0.00,WeatherDisplay:10.37,2013-06-17 19:28:00,
2013-06-17 15:33:00,82.2,58.8,30.00,North,0,0.0,0.0,45,0.00,CLR,FEW,0.00,WeatherDisplay:10.37,2013-06-17 19:33:00,
2013-06-17 15:38:00,81.7,59.5,30.00,North,0,0.0,0.0,47,0.00,CLR,FEW,0.00,WeatherDisplay:10.37,2013-06-17 19:38:00,
2013-06-17 15:43:00,81.3,59.2,30.00,North,0,0.0,0.0,47,0.00,CLR,FEW,0.00,WeatherDisplay:10.37,2013-06-17 19:43:00,
2013-06-17 15:48:00,81.9,60.2,30.00,North,0,0.0,0.0,48,0.00,CLR,FEW,0.00,WeatherDisplay:10.37,2013-06-17 19:48:00,
2013-06-17 15:53:00,82.8,59.3,30.00,North,0,0.0,0.0,45,0.00,CLR,FEW,0.00,WeatherDisplay:10.37,2013-06-17 19:53:00,
2013-06-17 15:58:00,83.3,57.8,30.00,North,0,0.0,0.0,42,0.00,CLR,FEW,0.00,WeatherDisplay:10.37,2013-06-17 19:58:00,
2013-06-17 16:03:00,82.8,56.7,30.00,North,0,0.0,0.0,41,0.00,CLR,FEW,0.00,WeatherDisplay:10.37,2013-06-17 20:03:00,
2013-06-17 16:08:00,82.0,58.0,30.00,North,0,0.0,0.0,44,0.00,CLR,FEW,0.00,WeatherDisplay:10.37,2013-06-17 20:08:00,
2013-06-17 16:13:00,81.7,57.6,30.00,North,0,0.0,0.0,44,0.00,CLR,FEW,0.00,WeatherDisplay:10.37,2013-06-17 20:13:00,
2013-06-17 16:18:00,81.5,58.1,30.00,North,0,0.0,0.0,45,0.00,CLR,FEW,0.00,WeatherDisplay:10.37,2013-06-17 20:18:00,
2013-06-17 16:23:00,82.2,58.8,30.00,North,0,0.0,0.0,45,0.00,CLR,FEW,0.00,WeatherDisplay:10.37,2013-06-17 20:23:00,
2013-06-17 16:29:00,83.5,58.0,30.00,North,0,0.0,0.0,42,0.00,CLR,FEW,0.00,WeatherDisplay:10.37,2013-06-17 20:29:00,
2013-06-17 16:35:00,84.6,57.6,29.97,North,0,0.0,0.0,40,0.00,CLR,FEW,0.00,WeatherDisplay:10.37,2013-06-17 20:35:00,
2013-06-17 16:40:00,84.6,56.2,29.97,North,0,0.0,0.0,38,0.00,CLR,FEW,0.00,WeatherDisplay:10.37,2013-06-17 20:40:00,
2013-06-17 16:45:00,84.2,55.8,29.97,North,0,0.0,0.0,38,0.00,CLR,FEW,0.00,WeatherDisplay:10.37,2013-06-17 20:45:00,
2013-06-17 16:50:00,84.2,56.6,29.97,North,0,0.0,0.0,39,0.00,CLR,FEW,0.00,WeatherDisplay:10.37,2013-06-17 20:50:00,
2013-06-17 16:55:00,84.4,56.0,29.97,North,0,0.0,0.0,38,0.00,CLR,FEW,0.00,WeatherDisplay:10.37,2013-06-17 20:55:00,
2013-06-17 17:00:00,84.4,56.7,29.97,North,0,0.0,0.0,39,0.00,CLR,FEW,0.00,WeatherDisplay:10.37,2013-06-17 21:00:00,
2013-06-17 17:06:00,84.0,55.7,29.97,North,0,0.0,0.0,38,0.00,CLR,FEW,0.00,WeatherDisplay:10.37,2013-06-17 21:06:00,
2013-06-17 17:11:00,83.8,56.9,29.97,North,0,0.0,0.0,40,0.00,CLR,FEW,0.00,WeatherDisplay:10.37,2013-06-17 21:11:00,
2013-06-17 17:16:00,84.2,55.8,29.97,North,0,0.0,0.0,38,0.00,CLR,FEW,0.00,WeatherDisplay:10.37,2013-06-17 21:16:00,
2013-06-17 17:21:00,84.6,56.9,29.97,North,0,0.0,0.0,39,0.00,CLR,FEW,0.00,WeatherDisplay:10.37,2013-06-17 21:21:00,
2013-06-17 17:26:00,84.7,56.3,29.97,North,0,0.0,0.0,38,0.00,CLR,FEW,0.00,WeatherDisplay:10.37,2013-06-17 21:26:00,
2013-06-17 17:31:00,84.6,56.2,29.97,North,0,0.0,0.0,38,0.00,CLR,FEW,0.00,WeatherDisplay:10.37,2013-06-17 21:31:00,
2013-06-17 17:36:00,83.8,56.2,29.97,North,0,0.0,0.0,39,0.00,CLR,FEW,0.00,WeatherDisplay:10.37,2013-06-17 21:36:00,
2013-06-17 17:41:00,83.3,55.8,29.97,North,0,0.0,0.0,39,0.00,CLR,FEW,0.00,WeatherDisplay:10.37,2013-06-17 21:41:00,
2013-06-17 17:46:00,83.5,55.2,29.97,North,0,0.0,0.0,38,0.00,CLR,FEW,0.00,WeatherDisplay:10.37,2013-06-17 21:46:00,
2013-06-17 17:51:00,83.8,56.2,29.97,North,0,0.0,0.0,39,0.00,CLR,FEW,0.00,WeatherDisplay:10.37,2013-06-17 21:51:00,
2013-06-17 17:56:00,84.0,56.4,29.97,North,0,0.0,0.0,39,0.00,CLR,FEW,0.00,WeatherDisplay:10.37,2013-06-17 21:56:00,
2013-06-17 18:01:00,83.8,55.5,29.97,North,0,0.0,0.0,38,0.00,CLR,FEW,0.00,WeatherDisplay:10.37,2013-06-17 22:01:00,
2013-06-17 18:06:00,83.8,55.5,29.97,North,0,0.0,0.0,38,0.00,CLR,FEW,0.00,WeatherDisplay:10.37,2013-06-17 22:06:00,
2013-06-17 18:11:00,84.0,56.4,29.97,North,0,0.0,0.0,39,0.00,CLR,FEW,0.00,WeatherDisplay:10.37,2013-06-17 22:11:00,
2013-06-17 18:16:00,83.8,56.9,29.97,North,0,0.0,0.0,40,0.00,CLR,FEW,0.00,WeatherDisplay:10.37,2013-06-17 22:16:00,
2013-06-17 18:21:00,83.3,55.8,29.97,North,0,0.0,0.0,39,0.00,CLR,FEW,0.00,WeatherDisplay:10.37,2013-06-17 22:21:00,
2013-06-17 18:26:00,82.8,56.0,29.97,North,0,0.0,0.0,40,0.00,CLR,FEW,0.00,WeatherDisplay:10.37,2013-06-17 22:26:00,
2013-06-17 18:31:00,82.4,56.3,29.97,North,0,0.0,0.0,41,0.00,CLR,FEW,0.00,WeatherDisplay:10.37,2013-06-17 22:31:00,
2013-06-17 18:36:00,82.0,57.3,29.97,North,0,0.0,0.0,43,0.00,CLR,FEW,0.00,WeatherDisplay:10.37,2013-06-17 22:36:00,
2013-06-17 18:41:00,81.7,58.3,29.97,North,0,0.0,0.0,45,0.00,CLR,FEW,0.00,WeatherDisplay:10.37,2013-06-17 22:41:00,
2013-06-17 18:46:00,81.5,58.7,29.97,North,0,0.0,0.0,46,0.00,CLR,FEW,0.00,WeatherDisplay:10.37,2013-06-17 22:46:00,
2013-06-17 18:51:00,81.3,59.2,29.97,North,0,0.0,0.0,47,0.00,CLR,FEW,0.00,WeatherDisplay:10.37,2013-06-17 22:51:00,
2013-06-17 18:57:00,81.1,59.6,29.97,North,0,0.0,0.0,48,0.00,CLR,FEW,0.00,WeatherDisplay:10.37,2013-06-17 22:57:00,
2013-06-17 19:02:00,81.1,59.0,29.97,North,0,0.0,0.0,47,0.00,CLR,FEW,0.00,WeatherDisplay:10.37,2013-06-17 23:02:00,
2013-06-17 19:07:00,81.1,59.6,29.97,North,0,0.0,0.0,48,0.00,CLR,FEW,0.00,WeatherDisplay:10.37,2013-06-17 23:07:00,
2013-06-17 19:12:00,81.0,59.4,29.97,North,0,0.0,0.0,48,0.00,CLR,FEW,0.00,WeatherDisplay:10.37,2013-06-17 23:12:00,
2013-06-17 19:17:00,80.8,59.8,29.97,North,0,0.0,0.0,49,0.00,CLR,FEW,0.00,WeatherDisplay:10.37,2013-06-17 23:17:00,
2013-06-17 19:22:00,80.4,60.1,29.97,North,0,0.0,0.0,50,0.00,CLR,FEW,0.00,WeatherDisplay:10.37,2013-06-17 23:22:00,
2013-06-17 19:27:00,80.2,60.5,29.97,North,0,0.0,0.0,51,0.00,CLR,FEW,0.00,WeatherDisplay:10.37,2013-06-17 23:27:00,
2013-06-17 19:32:00,79.9,60.7,29.97,North,0,0.0,0.0,52,0.00,CLR,FEW,0.00,WeatherDisplay:10.37,2013-06-17 23:32:00,
2013-06-17 19:37:00,79.9,61.2,29.97,North,0,0.0,0.0,53,0.00,CLR,FEW,0.00,WeatherDisplay:10.37,2013-06-17 23:37:00,
2013-06-17 19:42:00,79.9,62.3,29.97,North,0,0.0,0.0,55,0.00,CLR,FEW,0.00,WeatherDisplay:10.37,2013-06-17 23:42:00,
2013-06-17 19:47:00,79.5,61.4,29.97,North,0,0.0,0.0,54,0.00,CLR,FEW,0.00,WeatherDisplay:10.37,2013-06-17 23:47:00,
2013-06-17 19:52:00,79.5,61.4,29.97,North,0,0.0,0.0,54,0.00,CLR,FEW,0.00,WeatherDisplay:10.37,2013-06-17 23:52:00,
2013-06-17 19:57:00,79.5,62.4,29.97,North,0,0.0,0.0,56,0.00,CLR,FEW,0.00,WeatherDisplay:10.37,2013-06-17 23:57:00,
2013-06-17 20:02:00,79.3,61.8,29.97,North,0,0.0,0.0,55,0.00,CLR,FEW,0.00,WeatherDisplay:10.37,2013-06-18 00:02:00,
2013-06-17 20:07:00,79.3,62.3,29.97,North,0,0.0,0.0,56,0.00,CLR,FEW,0.00,WeatherDisplay:10.37,2013-06-18 00:07:00,
2013-06-17 20:12:00,79.5,62.4,29.97,North,0,0.0,0.0,56,0.00,CLR,FEW,0.00,WeatherDisplay:10.37,2013-06-18 00:12:00,
2013-06-17 20:17:00,79.5,62.4,30.00,North,0,0.0,0.0,56,0.00,CLR,FEW,0.00,WeatherDisplay:10.37,2013-06-18 00:17:00,
2013-06-17 20:22:00,79.5,62.9,30.00,North,0,0.0,0.0,57,0.00,CLR,FEW,0.00,WeatherDisplay:10.37,2013-06-18 00:22:00,
2013-06-17 20:26:00,79.5,63.9,30.00,North,0,0.0,0.0,59,0.00,CLR,FEW,0.00,WeatherDisplay:10.37,2013-06-18 00:26:00,
2013-06-17 20:31:00,79.3,63.3,29.97,North,0,0.0,0.0,58,0.00,CLR,FEW,0.00,WeatherDisplay:10.37,2013-06-18 00:31:00,
2013-06-17 20:36:00,79.3,63.3,29.97,North,0,0.0,0.0,58,0.00,CLR,FEW,0.00,WeatherDisplay:10.37,2013-06-18 00:36:00,
2013-06-17 20:41:00,79.3,63.8,29.97,North,0,0.0,0.0,59,0.00,CLR,FEW,0.00,WeatherDisplay:10.37,2013-06-18 00:41:00,
2013-06-17 20:46:00,79.3,63.8,30.00,North,0,0.0,0.0,59,0.00,CLR,FEW,0.00,WeatherDisplay:10.37,2013-06-18 00:46:00,
2013-06-17 20:51:00,79.3,63.3,30.00,North,0,0.0,0.0,58,0.00,CLR,FEW,0.00,WeatherDisplay:10.37,2013-06-18 00:51:00,
2013-06-17 20:56:00,79.2,63.1,30.00,North,0,0.0,0.0,58,0.00,CLR,FEW,0.00,WeatherDisplay:10.37,2013-06-18 00:56:00,
2013-06-17 21:01:00,79.2,63.6,30.00,North,0,0.0,0.0,59,0.00,CLR,FEW,0.00,WeatherDisplay:10.37,2013-06-18 01:01:00,
2013-06-17 21:06:00,79.2,64.1,30.00,North,0,0.0,0.0,60,0.00,CLR,FEW,0.00,WeatherDisplay:10.37,2013-06-18 01:06:00,
2013-06-17 21:11:00,79.2,64.6,30.00,North,0,0.0,0.0,61,0.00,CLR,FEW,0.00,WeatherDisplay:10.37,2013-06-18 01:11:00,
2013-06-17 21:16:00,79.3,64.7,30.00,North,0,0.0,0.0,61,0.00,CLR,FEW,0.00,WeatherDisplay:10.37,2013-06-18 01:16:00,
2013-06-17 21:21:00,79.3,64.7,30.00,North,0,0.0,0.0,61,0.00,CLR,FEW,0.00,WeatherDisplay:10.37,2013-06-18 01:21:00,
2013-06-17 21:26:00,79.3,64.7,30.00,North,0,0.0,0.0,61,0.00,CLR,FEW,0.00,WeatherDisplay:10.37,2013-06-18 01:26:00,
2013-06-17 21:31:00,79.5,63.9,30.00,North,0,0.0,0.0,59,0.00,CLR,FEW,0.00,WeatherDisplay:10.37,2013-06-18 01:31:00,
2013-06-17 21:36:00,79.3,63.3,30.00,North,0,0.0,0.0,58,0.00,CLR,FEW,0.00,WeatherDisplay:10.37,2013-06-18 01:36:00,
2013-06-17 21:41:00,79.3,63.3,30.00,North,0,0.0,0.0,58,0.00,CLR,FEW,0.00,WeatherDisplay:10.37,2013-06-18 01:41:00,
2013-06-17 21:46:00,79.5,63.9,30.00,North,0,0.0,0.0,59,0.00,CLR,FEW,0.00,WeatherDisplay:10.37,2013-06-18 01:46:00,
2013-06-17 21:51:00,79.3,64.2,30.00,North,0,0.0,0.0,60,0.00,CLR,FEW,0.00,WeatherDisplay:10.37,2013-06-18 01:51:00,
2013-06-17 21:56:00,79.3,64.2,30.00,North,0,0.0,0.0,60,0.00,CLR,FEW,0.00,WeatherDisplay:10.37,2013-06-18 01:56:00,
2013-06-17 22:01:00,79.2,64.6,30.00,North,0,0.0,0.0,61,0.00,CLR,FEW,0.00,WeatherDisplay:10.37,2013-06-18 02:01:00,
2013-06-17 22:06:00,79.2,64.6,30.00,North,0,0.0,0.0,61,0.00,CLR,FEW,0.00,WeatherDisplay:10.37,2013-06-18 02:06:00,
2013-06-17 22:11:00,79.2,63.6,30.00,North,0,0.0,0.0,59,0.00,CLR,FEW,0.00,WeatherDisplay:10.37,2013-06-18 02:11:00,
2013-06-17 22:16:00,79.3,63.8,30.00,North,0,0.0,0.0,59,0.00,CLR,FEW,0.00,WeatherDisplay:10.37,2013-06-18 02:16:00,
2013-06-17 22:21:00,79.2,63.6,30.00,North,0,0.0,0.0,59,0.00,CLR,FEW,0.00,WeatherDisplay:10.37,2013-06-18 02:21:00,
2013-06-17 22:26:00,79.0,63.9,30.00,North,0,0.0,0.0,60,0.00,CLR,FEW,0.00,WeatherDisplay:10.37,2013-06-18 02:26:00,
2013-06-17 22:31:00,79.0,63.9,30.03,North,0,0.0,0.0,60,0.00,CLR,FEW,0.00,WeatherDisplay:10.37,2013-06-18 02:31:00,
2013-06-17 22:36:00,79.0,63.9,30.03,North,0,0.0,0.0,60,0.00,CLR,FEW,0.00,WeatherDisplay:10.37,2013-06-18 02:36:00,
2013-06-17 22:41:00,78.8,63.7,30.03,North,0,0.0,0.0,60,0.00,CLR,FEW,0.00,WeatherDisplay:10.37,2013-06-18 02:41:00,
2013-06-17 22:46:00,78.8,64.2,30.00,North,0,0.0,0.0,61,0.00,CLR,FEW,0.00,WeatherDisplay:10.37,2013-06-18 02:46:00,
2013-06-17 22:51:00,79.0,64.4,30.00,North,0,0.0,0.0,61,0.00,CLR,FEW,0.00,WeatherDisplay:10.37,2013-06-18 02:51:00,
2013-06-17 22:56:00,79.0,64.4,30.00,North,0,0.0,0.0,61,0.00,CLR,FEW,0.00,WeatherDisplay:10.37,2013-06-18 02:56:00,
2013-06-17 23:01:00,79.0,64.4,30.00,North,0,0.0,0.0,61,0.00,CLR,FEW,0.00,WeatherDisplay:10.37,2013-06-18 03:01:00,
2013-06-17 23:06:00,79.0,64.4,30.00,North,0,0.0,0.0,61,0.00,CLR,FEW,0.00,WeatherDisplay:10.37,2013-06-18 03:06:00,
2013-06-17 23:11:00,79.2,64.6,30.00,North,0,0.0,0.0,61,0.00,CLR,FEW,0.00,WeatherDisplay:10.37,2013-06-18 03:11:00,
2013-06-17 23:16:00,79.2,64.6,30.00,North,0,0.0,0.0,61,0.00,CLR,FEW,0.00,WeatherDisplay:10.37,2013-06-18 03:16:00,
2013-06-17 23:21:00,79.2,64.6,30.00,North,0,0.0,0.0,61,0.00,CLR,FEW,0.00,WeatherDisplay:10.37,2013-06-18 03:21:00,
2013-06-17 23:26:00,79.3,65.2,30.00,North,0,0.0,0.0,62,0.00,CLR,FEW,0.00,WeatherDisplay:10.37,2013-06-18 03:26:00,
2013-06-17 23:31:00,79.3,64.7,30.03,North,0,0.0,0.0,61,0.00,CLR,FEW,0.00,WeatherDisplay:10.37,2013-06-18 03:31:00,
2013-06-17 23:36:00,79.2,63.6,30.03,North,0,0.0,0.0,59,0.00,CLR,FEW,0.00,WeatherDisplay:10.37,2013-06-18 03:36:00,
2013-06-17 23:41:00,79.0,62.9,30.03,North,0,0.0,0.0,58,0.00,CLR,FEW,0.00,WeatherDisplay:10.37,2013-06-18 03:41:00,
2013-06-17 23:46:00,79.2,62.6,30.00,North,0,0.0,0.0,57,0.00,CLR,FEW,0.00,WeatherDisplay:10.37,2013-06-18 03:46:00,
2013-06-17 23:51:00,79.0,60.9,30.00,North,0,0.0,0.0,54,0.00,CLR,FEW,0.00,WeatherDisplay:10.37,2013-06-18 03:51:00,
2013-06-17 23:56:00,78.8,60.7,30.00,North,0,0.0,0.0,54,0.00,CLR,FEW,0.00,WeatherDisplay:10.37,2013-06-18 03:56:00,